Home   Weather   Selkirk   Past weeks

Flag for Canada Past Weather in Selkirk, Manitoba, Canada — Yesterday and Last 2 Weeks

Now
36 °F

Chilly.


Feels Like: 36 °F
Forecast: 31 / 34 °F
Wind: 2 mph from Southwest

Location: Winnipeg The Forks Man

Current Time: Jan 20, 2017 at 12:17:22 pm

Latest Report: Jan 20, 2017 at 11:00 am


Visibility: N/A

Pressure: 29.53 "Hg

Humidity: 95%

Dew Point: 35 °F

Location of SelkirkLocation

Past Weather in Selkirk — Graph

°F

Selkirk Temperature Yesterday

Maximum temperature yesterday: 32 °F (at 3:00 pm)
Minimum temperature yesterday: 27 °F (at 8:00 am)
Average temperature yesterday: 29 °F

High & Low Weather Summary for the Past Weeks

 TemperatureHumidityPressure
High36 °F (Jan 20, 8:00 am)99% (Jan 20, 3:00 am)30.72 "Hg (Jan 20, 3:00 am)
Low-23 °F (Jan 13, 6:00 am)56% (Jan 11, 3:00 pm)29.52 "Hg (Jan 20, 7:00 am)
Average6 °F74%30.05 "Hg
* Reported Jan 5 11:00 am — Jan 20 11:00 am, Selkirk, Weather by CustomWeather, © 2017

Note: Actual official high and low records may vary slightly from our data, if they occured in-between our weather recording intervals... More about our weather records

Advertising

Selkirk Weather History for the Previous 24 Hours

Scroll right to see more
 ConditionsComfort  
Time TempWeatherWind HumidityBarometerVisibility
11:00 am
Fri, Jan 20
36 °FChilly.2 mph95%29.53 "HgN/A
10:00 am35 °FChilly.2 mph96%29.54 "HgN/A
9:00 am35 °FChilly.1 mph93%29.53 "HgN/A
8:00 am36 °FChilly.2 mph92%29.53 "HgN/A
7:00 am36 °FChilly.2 mph91%29.52 "HgN/A
6:00 am35 °FChilly.7 mph91%29.53 "HgN/A
5:00 am35 °FChilly.7 mph87%29.53 "HgN/A
4:00 am34 °FChilly.6 mph94%29.53 "HgN/A
3:00 am31 °FChilly.5 mph99%29.54 "HgN/A
2:00 am32 °FChilly.7 mph95%29.54 "HgN/A
1:00 am32 °FChilly.7 mph94%29.54 "HgN/A
12:00 am31 °FChilly.7 mph94%29.54 "HgN/A
11:00 pm
Thu, Jan 19
30 °FChilly.7 mph95%29.53 "HgN/A
10:00 pm28 °FChilly.5 mph94%29.53 "HgN/A
9:00 pm27 °FChilly.6 mph90%29.54 "HgN/A
8:00 pm28 °FChilly.5 mph89%29.54 "HgN/A
7:00 pm29 °FChilly.5 mph83%29.54 "HgN/A
6:00 pm30 °FChilly.3 mph83%29.54 "HgN/A
5:00 pm30 °FChilly.5 mph81%29.54 "HgN/A
4:00 pm30 °FChilly.3 mph77%29.53 "HgN/A
3:00 pm32 °FChilly.5 mph72%29.52 "HgN/A
2:00 pm31 °FChilly.7 mph74%29.53 "HgN/A
1:00 pm31 °FChilly.7 mph73%29.53 "HgN/A
12:00 pm30 °FChilly.5 mph76%29.53 "HgN/A
Weather by CustomWeather, © 2017

See weather overviewHow to use our weather pages